DW9711 Weather Reports


Display with metric or nautical units.
time (UTC)temp
F
wind
direction
speed
MPH
gust
MPH
rain 1hr
in
rain 24hr
in
rain mn
in
humidity
%
barometer
mb
20260905180541 98 62 0.0 2.0 0.00 0.00 0.00 50 1010.9
20260905180043 97 67 0.0 3.0 0.00 0.00 0.00 51 1010.9
20260905175538 97 9 0.0 0.0 0.00 0.00 0.00 50 1011.0
20260905175038 97 9 0.0 1.0 0.00 0.00 0.00 52 1011.0
20260905174538 96 5 0.0 4.0 0.00 0.00 0.00 50 1011.1
20260905174035 96 307 1.0 4.0 0.00 0.00 0.00 50 1011.0
20260905173535 96 292 0.0 0.0 0.00 0.00 0.00 50 1011.1
20260905173043 96 292 0.0 1.0 0.00 0.00 0.00 50 1011.1
20260905172535 96 307 0.0 1.0 0.00 0.00 0.00 51 1011.2
20260905172032 96 312 0.0 0.0 0.00 0.00 0.00 53 1011.3
20260905171531 95 310 0.0 4.0 0.00 0.00 0.00 53 1011.3
20260905171030 95 308 0.0 5.0 0.00 0.00 0.00 50 1011.3
20260905170529 95 309 2.0 5.0 0.00 0.00 0.00 49 1011.3
20260905170029 95 312 0.0 0.0 0.00 0.00 0.00 55 1011.3
20260905165527 95 312 0.0 0.0 0.00 0.00 0.00 54 1011.4
20260905165028 95 315 0.0 1.0 0.00 0.00 0.00 55 1011.4
20260905164530 95 317 0.0 3.0 0.00 0.00 0.00 54 1011.5
20260905164025 95 318 1.0 3.0 0.00 0.00 0.00 56 1011.5
20260905163528 95 277 0.0 3.0 0.00 0.00 0.00 55 1011.6
20260905163026 94 236 0.0 4.0 0.00 0.00 0.00 55 1011.7
20260905162523 94 229 0.0 4.0 0.00 0.00 0.00 56 1011.8
20260905162022 94 211 0.0 4.0 0.00 0.00 0.00 56 1011.8
20260905161521 94 211 1.0 4.0 0.00 0.00 0.00 56 1011.9
20260905161019 93 300 0.0 5.0 0.00 0.00 0.00 59 1011.9
20260905160518 93 301 1.0 5.0 0.00 0.00 0.00 61 1011.9
20260905160017 92 317 0.0 3.0 0.00 0.00 0.00 60 1012.0
20260905155517 92 317 0.0 3.0 0.00 0.00 0.00 61 1012.0
20260905155015 93 316 0.0 2.0 0.00 0.00 0.00 61 1012.0
20260905154516 92 316 0.0 3.0 0.00 0.00 0.00 62 1012.0
20260905154018 92 316 0.0 3.0 0.00 0.00 0.00 62 1012.0
20260905153514 92 316 0.0 3.0 0.00 0.00 0.00 63 1012.0
20260905153017 92 316 0.0 2.0 0.00 0.00 0.00 63 1012.1
20260905152511 91 316 0.0 4.0 0.00 0.00 0.00 66 1012.1
20260905152011 91 107 0.0 2.0 0.00 0.00 0.00 63 1012.1
20260905151517 91 119 0.0 2.0 0.00 0.00 0.00 65 1012.1
20260905151006 91 111 0.0 2.0 0.00 0.00 0.00 64 1012.1
20260905150504 91 61 0.0 0.0 0.00 0.00 0.00 69 1012.1
20260905150003 91 61 0.0 0.0 0.00 0.00 0.00 68 1012.1
20260905145502 90 61 0.0 0.0 0.00 0.00 0.00 70 1012.1
20260905145102 90 61 0.0 0.0 0.00 0.00 0.00 70 1012.1
20260905144559 89 61 0.0 0.0 0.00 0.00 0.00 69 1012.1
20260905144057 89 61 0.0 0.0 0.00 0.00 0.00 70 1012.1
20260905054615 79 69 0.0 0.0 0.00 0.00 0.00 85 1011.2
20260905054040 80 69 0.0 0.0 0.00 0.00 0.00 84 1011.2
20260905053544 80 69 0.0 0.0 0.00 0.00 0.00 84 1011.2
20260905053043 80 69 0.0 0.0 0.00 0.00 0.00 84 1011.3
20260905052539 80 69 0.0 0.0 0.00 0.00 0.00 84 1011.3
20260905052038 80 69 0.0 0.0 0.00 0.00 0.00 83 1011.4
20260905051538 80 69 0.0 0.0 0.00 0.00 0.00 83 1011.3
20260905051037 80 69 0.0 0.0 0.00 0.00 0.00 83 1011.2
20260905050536 80 69 0.0 0.0 0.00 0.00 0.00 83 1011.3
20260905050034 80 69 0.0 0.0 0.00 0.00 0.00 83 1011.3
20260905045536 81 69 0.0 0.0 0.00 0.00 0.00 83 1011.2
20260905045034 81 69 0.0 0.0 0.00 0.00 0.00 83 1011.2
20260905023530 84 69 0.0 0.0 0.00 0.00 0.00 77 1011.5
20260905023031 84 69 0.0 0.0 0.00 0.00 0.00 76 1011.5
20260905022530 85 69 0.0 0.0 0.00 0.00 0.00 75 1011.5
20260905022033 85 69 0.0 0.0 0.00 0.00 0.00 75 1011.5
20260905021530 85 69 0.0 0.0 0.00 0.00 0.00 76 1011.5
20260905021029 85 69 0.0 0.0 0.00 0.00 0.00 75 1011.5
20260905020534 85 69 0.0 0.0 0.00 0.00 0.00 74 1011.4
20260905020029 85 69 0.0 0.0 0.00 0.00 0.00 73 1011.3
20260905015530 85 69 0.0 0.0 0.00 0.00 0.00 74 1011.3
20260905015030 86 69 0.0 0.0 0.00 0.00 0.00 73 1011.3
20260905014529 86 69 0.0 0.0 0.00 0.00 0.00 72 1011.3
20260905014029 86 69 0.0 0.0 0.00 0.00 0.00 72 1011.2
20260905013529 87 69 0.0 0.0 0.00 0.00 0.00 70 1011.2
20260905013029 87 69 0.0 0.0 0.00 0.00 0.00 71 1011.1
20260905012532 87 69 0.0 0.0 0.00 0.00 0.00 71 1011.0
20260905012029 87 69 0.0 0.0 0.00 0.00 0.00 70 1010.9
20260905011528 87 69 0.0 0.0 0.00 0.00 0.00 70 1011.0
20260905011028 88 69 0.0 0.0 0.00 0.00 0.00 70 1010.9
20260905010528 88 69 0.0 0.0 0.00 0.00 0.00 69 1010.8
20260905010036 88 69 0.0 0.0 0.00 0.00 0.00 70 1010.7
20260905005530 88 69 0.0 0.0 0.00 0.00 0.00 69 1010.7
20260905005027 89 69 0.0 0.0 0.00 0.00 0.00 69 1010.7
20260905004527 89 69 0.0 0.0 0.00 0.00 0.00 69 1010.7
20260905004026 90 69 0.0 0.0 0.00 0.00 0.00 69 1010.7
20260905003530 90 69 0.0 0.0 0.00 0.00 0.00 69 1010.7
20260905003027 90 69 0.0 0.0 0.00 0.00 0.00 68 1010.7
20260905002528 91 69 0.0 0.0 0.00 0.00 0.00 66 1010.7
20260905002026 91 69 0.0 0.0 0.00 0.00 0.00 67 1010.6
20260905001525 92 69 0.0 0.0 0.00 0.00 0.00 64 1010.7
20260905001025 92 69 0.0 0.0 0.00 0.00 0.00 64 1010.6
20260905000527 93 69 0.0 0.0 0.00 0.00 0.00 63 1010.5
20260905000032 93 69 0.0 0.0 0.00 0.00 0.00 64 1010.6
20260904235524 94 69 0.0 0.0 0.00 0.00 0.00 63 1010.6
20260904235025 94 69 0.0 0.0 0.00 0.00 0.00 62 1010.6
20260904234524 94 69 0.0 0.0 0.00 0.00 0.00 60 1010.6
20260904234026 95 69 0.0 0.0 0.00 0.00 0.00 57 1010.5
20260904233524 95 69 0.0 0.0 0.00 0.00 0.00 56 1010.5
20260904233025 95 69 0.0 0.0 0.00 0.00 0.00 55 1010.5
20260904232524 95 69 0.0 0.0 0.00 0.00 0.00 54 1010.5
20260904232023 95 69 0.0 0.0 0.00 0.00 0.00 55 1010.5
20260904231523 96 69 0.0 0.0 0.00 0.00 0.00 54 1010.5
20260904231023 96 69 0.0 0.0 0.00 0.00 0.00 54 1010.5
20260904230524 96 69 0.0 0.0 0.00 0.00 0.00 52 1010.5
20260904230023 96 69 0.0 0.0 0.00 0.00 0.00 51 1010.4
20260904225522 96 69 0.0 0.0 0.00 0.00 0.00 51 1010.5
20260904225023 97 69 0.0 0.0 0.00 0.00 0.00 51 1010.6
20260904224523 97 69 0.0 0.0 0.00 0.00 0.00 50 1010.4
20260904224023 97 69 0.0 0.0 0.00 0.00 0.00 51 1010.4
20260904223524 97 69 0.0 0.0 0.00 0.00 0.00 53 1010.4
20260904223021 97 69 0.0 0.0 0.00 0.00 0.00 53 1010.5
20260904222526 97 68 0.0 0.0 0.00 0.00 0.00 50 1010.5
20260904222021 97 69 0.0 2.0 0.00 0.00 0.00 51 1010.5
20260904221522 97 69 0.0 4.0 0.00 0.00 0.00 50 1010.5
20260904221022 98 68 1.0 4.0 0.00 0.00 0.00 49 1010.5
20260904220521 98 138 0.0 3.0 0.00 0.00 0.00 50 1010.5
20260904220021 98 139 0.0 3.0 0.00 0.00 0.00 50 1010.6
20260904215520 98 154 0.0 2.0 0.00 0.00 0.00 51 1010.6
20260904215024 98 155 0.0 3.0 0.00 0.00 0.00 47 1010.5
20260904214521 98 155 0.0 3.0 0.00 0.00 0.00 49 1010.5
20260904214020 98 157 1.0 3.0 0.00 0.00 0.00 49 1010.5
20260904213523 98 196 0.0 2.0 0.00 0.00 0.00 49 1010.5
20260904213020 98 196 0.0 2.0 0.00 0.00 0.00 48 1010.5
20260904212520 98 196 0.0 2.0 0.00 0.00 0.00 49 1010.6
20260904212019 98 196 0.0 4.0 0.00 0.00 0.00 51 1010.7
20260904211517 98 196 1.0 4.0 0.00 0.00 0.00 49 1010.8
20260904211017 98 197 0.0 3.0 0.00 0.00 0.00 52 1010.8
20260904210516 98 196 1.0 4.0 0.00 0.00 0.00 53 1011.0
20260904210019 98 197 1.0 4.0 0.00 0.00 0.00 53 1011.1
20260904205514 98 145 0.0 0.0 0.00 0.00 0.00 52 1011.2
20260904205013 98 117 0.0 0.0 0.00 0.00 0.00 52 1011.3
20260904204513 98 122 0.0 0.0 0.00 0.00 0.00 52 1011.3
20260904204014 98 119 0.0 7.0 0.00 0.00 0.00 50 1011.3
20260904203511 98 119 0.0 7.0 0.00 0.00 0.00 50 1011.4
20260904203013 98 89 0.0 0.0 0.00 0.00 0.00 48 1011.5
20260904202511 98 96 0.0 0.0 0.00 0.00 0.00 48 1011.5
20260904202014 98 96 0.0 0.0 0.00 0.00 0.00 47 1011.6
20260904201510 98 90 0.0 0.0 0.00 0.00 0.00 51 1011.6
20260904201010 98 90 0.0 0.0 0.00 0.00 0.00 49 1011.8
20260904200509 98 90 0.0 0.0 0.00 0.00 0.00 49 1011.8
20260904200009 98 90 0.0 0.0 0.00 0.00 0.00 49 1011.9
20260904195513 98 98 0.0 0.0 0.00 0.00 0.00 49 1012.0
20260904195010 98 57 0.0 5.0 0.00 0.00 0.00 47 1012.0
20260904194510 98 61 0.0 5.0 0.00 0.00 0.00 49 1012.1
20260904194008 98 83 0.0 3.0 0.00 0.00 0.00 48 1012.1
20260904193508 98 80 0.0 3.0 0.00 0.00 0.00 47 1012.1
20260904193010 98 144 0.0 3.0 0.00 0.00 0.00 48 1012.2
20260904192507 98 115 0.0 0.0 0.00 0.00 0.00 47 1012.3
20260904192008 98 84 0.0 0.0 0.00 0.00 0.00 50 1012.4
20260904191506 98 339 0.0 0.0 0.00 0.00 0.00 48 1012.5
20260904191006 98 339 0.0 0.0 0.00 0.00 0.00 46 1012.5
20260904190507 99 340 0.0 0.0 0.00 0.00 0.00 45 1012.5
20260904190005 99 333 0.0 0.0 0.00 0.00 0.00 47 1012.6
20260904185504 98 229 0.0 0.0 0.00 0.00 0.00 48 1012.6
20260904185004 98 331 0.0 0.0 0.00 0.00 0.00 47 1012.7
20260904184504 98 85 0.0 0.0 0.00 0.00 0.00 48 1012.8
20260904184004 98 84 0.0 0.0 0.00 0.00 0.00 48 1012.7
20260904183503 98 13 0.0 0.0 0.00 0.00 0.00 49 1012.8
20260904183005 98 13 0.0 0.0 0.00 0.00 0.00 48 1012.9
20260904182504 98 104 0.0 0.0 0.00 0.00 0.00 49 1013.0
20260904182003 98 28 0.0 0.0 0.00 0.00 0.00 50 1012.9
20260904181503 98 27 0.0 0.0 0.00 0.00 0.00 46 1013.0
20260904181003 98 27 0.0 0.0 0.00 0.00 0.00 48 1013.0